ドゥ・トイト-ニェウイミン-デルポルト彗星

57P/du Toit-Neujmin-Delporte (2008)

English version
Home page
Total 6,336 html files since Dec. 4, 1995
Updated on July 27, 2008

---------------------------------------------------------------------

・ プロフィール

・ 軌道要素

The following orbital elements are taken from MPC 54171:

Epoch 2009 Jan. 9.0 TT = JDT 2454840.5
T 2008 Dec. 25.9858 TT                                  MPC
q   1.723838             (2000.0)            P               Q
n   0.1538463      Peri.  115.2989      +0.5608802      +0.8278618
a   3.449409       Node   188.8297      -0.7763308      +0.5227226
e   0.500251       Incl.    2.8481      -0.2876175      +0.2034844
P   6.41
From 175 observations 1983-2002, mean residual 0".9.  Nongravitational
     parameters A1 = +0.41, A2 = +0.0184.

・ 星図

・ 光度変化

        m1 = 9.7 + 5 logΔ + 20.0 log r

---------------------------------------------------------------------

軌道要素はMPCのEphemerides and Orbital Elementsに掲載されたものです。
星図はステラナビゲータ Ver.8 (アストロアーツ) で作成したものです。
光度グラフはComet for Windowsで作成したものです。

---------------------------------------------------------------------

Copyright(C) 1995-2008 Seiichi Yoshida (comet@aerith.net). All rights reserved.